Location: LDNL
(36.4545°S, 141.6685°E)
Time: 22:51:06
(UTC+11:00)

Transit 2A - All Passes

Search period start: 30 January 2023 00:00
Search period end: 09 February 2023 00:00
Orbit: 594 x 962 km, 66.7° (Epoch: 29 January)

Date Brightness Start Highest point End Pass type
(mag) Time Alt. Az. Time Alt. Az. Time Alt. Az.
30 Jan - 07:00:16 10° N 07:06:12 55° ENE 07:11:41 10° SE daylight
30 Jan - 08:45:02 10° WNW 08:49:37 23° SW 08:53:56 10° S daylight
30 Jan - 15:50:59 10° S 15:54:27 21° SE 15:57:47 10° ENE daylight
30 Jan - 17:33:37 10° SW 17:37:38 33° WNW 17:41:31 10° N daylight
31 Jan - 06:26:16 10° N 06:31:46 37° ENE 06:36:55 10° SE daylight
31 Jan - 08:09:40 10° WNW 08:14:57 32° SW 08:19:52 10° S daylight
31 Jan - 15:17:15 10° SSE 15:19:43 14° SE 15:22:05 10° E daylight
31 Jan - 16:58:51 10° SW 17:03:15 56° WNW 17:07:27 10° NNE daylight
01 Feb - 05:52:35 10° NNE 05:57:23 25° ENE 06:01:56 10° SE visible
01 Feb - 07:34:36 10° NW 07:40:21 46° WSW 07:45:39 10° SSE daylight
01 Feb - 16:24:17 10° SSW 16:28:48 87° ESE 16:33:07 10° NNE daylight
02 Feb - 05:19:26 10° NE 05:23:03 17° ENE 05:26:32 10° ESE visible
02 Feb - 06:59:48 10° NW 07:05:48 67° WSW 07:11:18 10° SSE daylight
02 Feb - 08:48:34 10° WSW 08:49:49 11° SW 08:51:03 10° SSW daylight
02 Feb - 15:49:51 10° SSW 15:54:17 52° ESE 15:58:30 10° NE daylight
02 Feb - 17:35:18 10° W 17:36:46 11° WNW 17:38:13 10° NW daylight
03 Feb - 04:48:05 10° ENE 04:48:45 10° ENE 04:49:26 10° E visible
03 Feb - 06:25:14 10° NNW 06:31:17 84° ENE 06:36:51 10° SSE visible
03 Feb - 08:11:41 10° W 08:14:59 15° SW 08:18:10 10° SSW daylight
03 Feb - 15:15:36 10° S 15:19:41 33° SE 15:23:37 10° ENE daylight
03 Feb - 16:59:20 10° WSW 17:02:30 19° WNW 17:05:35 10° NNW daylight
04 Feb - 05:50:55 10° N 05:56:49 57° ENE 06:02:15 10° SE visible
04 Feb - 07:35:50 10° W 07:40:15 22° SW 07:44:24 10° S daylight
04 Feb - 14:41:31 10° S 14:45:01 22° SE 14:48:24 10° ENE daylight
04 Feb - 16:24:14 10° SW 16:28:10 31° WNW 16:31:59 10° N daylight
05 Feb - 05:16:51 10° N 05:22:23 38° ENE 05:27:31 10° SE visible
05 Feb - 07:00:25 10° WNW 07:05:34 30° SW 07:10:21 10° S daylight
05 Feb - 14:07:44 10° SSE 14:10:17 15° SE 14:12:45 10° E daylight
05 Feb - 15:49:26 10° SW 15:53:46 53° WNW 15:57:58 10° N daylight
06 Feb - 04:43:07 10° NNE 04:47:58 26° ENE 04:52:32 10° SE visible
06 Feb - 06:25:19 10° NW 06:30:57 43° WSW 06:36:09 10° SSE visible
06 Feb - 15:14:50 10° SSW 15:19:19 89° WNW 15:23:38 10° NNE daylight
07 Feb - 04:09:54 10° NE 04:13:37 17° ENE 04:17:11 10° ESE visible
07 Feb - 05:50:28 10° NW 05:56:24 64° WSW 06:01:49 10° SSE visible
07 Feb - 14:40:23 10° SSW 14:44:48 55° ESE 14:49:02 10° NE daylight
07 Feb - 16:26:13 10° W 16:27:16 11° WNW 16:28:18 10° WNW daylight
08 Feb - 03:38:05 10° ENE 03:39:18 11° ENE 03:40:31 10° E visible
08 Feb - 05:15:51 10° NNW 05:21:52 88° ENE 05:27:22 10° SSE visible
08 Feb - 07:02:32 10° W 07:05:35 15° SW 07:08:31 10° SSW daylight
08 Feb - 14:06:06 10° S 14:10:13 34° ESE 14:14:10 10° ENE daylight
08 Feb - 15:49:58 10° WSW 15:52:58 18° WNW 15:55:57 10° NNW daylight
